SCP
0 0 0 0 0 0 0 0 0 0 0 0 0 0 0 0 0 0 0 0 0 0 0 0 0 0 0 0 0 0 0 0 0 0 0 0 0 0 0 0 0 0 0
0 0 0 0 0 0 0 0 0 0 0 0 0 0 0 0 0 0 0 0 0 0 0 0 0 0 0 0 0 0 0 0 0 0 0 0 0 0 0 0 0 0 0
0 0 0 0 0 0 0 0 0 0 0 0 0 0 0 0 0 0 0 0 0 0 0 0 0 0 0 0 0 0 0 0 0 0 0 0 0 0 0 0 0 0 0
0 0 0 0 0 0 0 0 0 0 0 0 0 0 0 0 0 0 0 0 0 0 0 0 0 0 0 0 0 0 0 0 0 0 0 0 0 0 0 0 0 0 0
0 0 0 0 0 0 0 0 0 0 0 0 0 0 0 0 0 0 0 0 0 0 0 0 0 0 0 0 0 0 0 0 0 0 0 0 0 0 0 0 0 0 0
0 0 0 0 0 0 0 0 0 0 0 0 0 0 0 0 0 0 0 0 0 0 0 0 -0 0 0 0 -0 0 0 0 0 0 0 0 0 0 0 0 0 0 0
0 0 0 0 0 0 0 0 0 0 0 0 0 0 0 0 0 0 0 0 0 0 0 0 0 0 0 0 0 0 0 0 0 0 0 0 0 0 0 0 0 -0 -0
0 0 0 0 0 0 0 0 0 0 0 0 0 0 0 0 0 0 0 0 0 0 0 0 0 0 0 0 0 0 0 0 0 0 0 0 0 0 0 -0 -0 -0 -0
0 0 0 0 0 0 0 0 0 0 0 0 0 0 0 0 0 0 0 0 0 0 0 0 0 0 0 0 0 0 0 0 0 0 0 0 -0 -0 -0 -0 -0 -0 -0
0 0 0 0 0 0 0 0 0 0 0 0 0 0 0 0 0 0 0 0 0 0 0 0 0 0 0 0 0 0 0 0 0 -0 -0 -0 -0 -0 -0 -0 -0 -0 -0
0 0 0 0 0 0 0 0 0 0 0 0 0 0 0 0 0 0 0 0 -0 0 0 -0 -0 0 0 0 0 0 0 0 0 -0 -0 -0 -0 -0 -0 -0 -0 -0 -0
0 0 0 0 0 0 0 0 0 0 0 0 0 0 0 0 0 0 0 0 0 0 -0 -0 0 0 0 0 0 0 0 0 0 0 0 -0 -0 -0 -0 -0 0 0 0
0 0 0 0 0 0 0 0 0 0 0 0 0 0 0 0 0 0 0 0 0 0 0 0 0 0 0 0 0 0 0 0 0 0 0 0 0 0 0 0 0 0 0
0 0 0 0 0 0 0 0 0 0 0 0 0 0 0 0 0 0 0 0 0 0 0 0 0 0 0 0 0 0 0 0 0 0 0 0 0 0 0 0 0 0 0
0 0 0 0 0 0 0 0 0 0 0 0 0 0 0 0 0 0 0 0 0 0 0 0 0 0 0 0 0 0 0 0 0 0 0 0 0 0 0 0 0 0 0
0 0 0 0 0 0 0 0 0 0 0 0 0 0 0 0 0 0 0 0 0 0 0 0 0 0 0 0 0 0 0 0 0 0 0 0 0 0 0 0 0 0 0
0 0 0 0 0 0 0 0 0 0 0 0 0 0 0 0 0 0 0 0 0 0 0 0 0 0 0 0 0 0 0 0 0 0 0 0 0 0 0 0 0 0 0
0 0 0 0 0 0 0 0 0 0 0 0 0 0 0 0 0 0 0 0 0 0 0 0 0 0 0 0 0 0 0 0 0 0 0 0 0 0 0 0 0 0 0
0 0 0 0 0 0 0 0 0 0 0 0 0 0 0 0 0 0 0 0 0 0 0 0 0 0 0 0 0 0 0 0 0 0 0 0 0 0 0 0 0 0 0
0 0 0 0 0 0 0 0 0 0 0 0 0 0 0 0 0 0 0 0 0 0 0 0 0 0 0 0 0 0 0 0 0 0 0 0 0 0 0 0 0 0 0
0 0 0 0 0 0 0 0 0 0 0 0 0 0 0 0 0 0 0 0 0 0 0 0 0 0 0 0 0 0 0 0 0 0 0 0 0 0 0 0 0 0 0
0 0 0 0 0 0 0 0 0 0 0 0 0 0 0 0 0 0 0 0 0 0 0 0 0 0 0 0 0 0 0 0 0 0 0 0 0 0 0 0 0 0 0
0 0 0 0 0 0 0 0 0 0 0 0 0 0 0 0 0 0 0 0 0 0 0 0 0 0 0 0 0 0 0 0 0 0 0 0 0 0 0 0 0 0 0
0 0 0 0 0 0 0 0 0 0 0 0 0 0 0 0 0 0 0 0 0 0 0 0 0 0 0 0 0 0 0 0 0 0 0 0 0 0 0 0 0 0 0
0 0 0 0 0 0 0 0 0 0 0 0 0 0 0 0 0 0 0 0 0 0 0 0 0 0 0 0 0 0 0 0 0 0 0 0 0 0 0 0 0 0 0
0 0 0 0 0 0 0 0 0 0 0 0 0 0 0 0 0 0 0 0 0 0 0 0 0 0 0 0 0 0 0 0 0 0 0 0 0 0 0 0 0 0 0
Wind_Speed_500mb
27 29 33 35 34 34 35 33 31 33 33 29 21 18 19 21 23 23 22 22 27 33 37 40 40 35 34 38 39 39 41 42 42 42 43 42 44 47 51 55 57 59 55
28 33 37 40 38 37 36 34 34 36 36 30 26 19 22 22 22 24 26 19 20 25 29 34 25 22 25 27 29 31 32 32 32 35 36 35 36 38 39 42 45 51 58
28 36 41 42 39 37 36 33 33 35 36 30 27 24 22 20 16 19 18 22 24 25 16 19 21 18 19 20 21 21 22 21 20 21 20 20 19 28 29 33 38 42 46
29 35 42 43 40 38 38 38 37 38 39 36 32 26 21 14 15 21 16 19 15 17 19 26 22 22 17 14 10 9 12 17 15 18 19 16 22 24 30 36 42 42 47
30 37 42 42 41 38 38 40 40 42 45 41 36 26 15 10 14 4 11 14 11 15 17 20 22 28 20 15 14 16 14 15 16 12 12 17 24 30 37 42 40 43 50
32 37 41 41 40 37 35 37 40 41 44 43 35 26 9 7 10 10 12 11 16 23 27 22 26 35 23 16 15 15 16 15 12 15 18 24 29 31 37 38 45 52 54
33 39 42 39 37 35 35 36 39 40 43 46 35 12 9 5 2 6 4 11 13 21 26 21 35 30 19 18 18 14 14 15 13 12 18 26 30 29 31 38 46 53 62
33 37 37 36 35 35 32 32 35 38 39 42 38 19 11 2 3 7 6 7 6 17 19 26 29 29 23 17 20 12 13 14 15 17 16 26 28 30 33 31 43 48 41
35 36 34 33 31 32 32 32 32 34 36 34 28 16 11 9 27 12 11 12 10 8 18 25 31 29 34 17 16 16 18 20 19 21 22 27 31 31 29 26 37 44 39
31 29 28 29 30 31 30 31 31 31 33 32 26 13 12 15 11 17 17 16 16 14 20 26 33 40 33 28 20 25 24 27 23 21 23 26 29 32 32 27 32 33 38
26 28 29 30 29 31 32 32 31 30 31 30 28 28 25 14 16 20 37 26 24 25 25 27 28 25 17 22 25 25 28 28 25 24 23 27 29 30 29 29 30 30 32
27 30 33 34 34 33 33 33 33 34 33 33 30 26 26 23 18 19 32 39 42 38 35 24 14 14 17 23 28 22 26 25 25 26 29 29 26 26 27 25 25 26 24
32 32 34 36 37 38 37 36 36 35 36 38 35 33 30 28 27 26 31 39 39 45 29 8 9 11 18 26 17 25 30 25 24 24 27 28 26 24 25 25 23 21 19
38 39 39 40 39 40 41 40 39 38 37 39 40 37 37 36 34 32 34 34 41 39 35 18 21 16 19 23 34 41 39 28 24 24 25 25 24 21 22 22 23 21 19
40 40 41 43 43 41 40 40 41 41 39 40 39 40 43 40 39 39 39 30 28 29 35 12 11 19 26 35 41 41 41 26 21 23 25 23 20 19 19 20 22 22 19
41 41 43 42 41 40 39 40 41 40 44 43 43 44 43 43 43 42 43 40 34 37 40 40 36 35 37 40 38 33 33 24 24 24 24 23 19 18 18 19 20 21 20
38 38 39 41 39 39 37 39 39 40 43 45 45 49 49 46 46 44 44 45 47 44 48 52 48 41 42 40 37 33 31 28 25 26 24 22 20 18 19 19 18 18 18
40 41 41 42 41 40 39 39 39 39 42 44 45 45 51 49 50 47 47 49 51 51 55 61 52 45 42 39 40 35 30 31 31 29 25 23 22 20 19 19 19 18 18
42 41 41 42 42 41 41 40 41 42 41 42 44 45 46 46 51 49 48 50 49 49 51 58 60 49 44 39 40 38 35 33 32 27 25 26 25 24 22 21 20 19 18
45 43 42 41 39 39 39 39 40 41 42 42 41 44 45 44 45 47 50 52 51 52 52 53 57 53 48 41 42 41 38 34 29 28 27 26 25 23 22 21 20 19 19
43 43 42 40 40 39 38 38 40 40 42 43 41 40 40 42 44 44 47 49 50 55 55 54 57 55 51 46 43 41 42 35 31 32 27 23 20 20 21 20 19 21 22
42 44 44 44 43 42 39 39 42 43 42 43 42 38 36 37 38 41 43 48 49 52 57 59 60 58 56 48 43 41 40 38 39 31 27 27 30 25 24 23 24 23 24
42 43 44 45 44 41 40 39 39 40 43 43 41 38 37 33 33 35 36 37 42 45 49 55 60 59 53 44 41 44 41 40 40 36 40 42 33 33 28 27 24 25 26
45 45 44 42 43 39 38 38 40 40 41 40 40 39 36 33 31 34 37 36 35 38 39 40 46 47 43 38 38 40 41 44 43 39 37 45 40 33 28 27 25 26 28
47 47 45 42 41 37 36 38 40 42 43 42 38 35 34 35 31 33 34 37 35 36 35 39 39 40 39 37 36 37 40 38 41 42 39 41 42 36 31 29 28 29 30
48 47 46 41 38 38 33 35 39 41 41 41 38 35 32 32 30 28 29 32 34 30 32 32 34 34 33 34 34 35 32 38 41 44 38 31 28 26 15 21 22 18 17
Wind_Direction_500mb
1 1 358 353 351 347 343 342 342 342 337 329 320 309 310 309 311 306 310 313 285 281 284 289 295 287 274 269 274 280 282 283 284 286 285 285 282 278 275 272 270 268 263
4 3 1 357 353 349 346 342 343 345 341 331 322 306 291 291 296 298 292 301 299 293 296 305 309 293 281 278 279 283 288 289 288 287 286 285 287 290 288 286 281 276 269
0 1 358 355 351 348 344 343 342 342 342 330 322 314 308 296 283 309 297 293 292 296 307 311 322 314 295 291 291 295 298 300 305 311 313 310 322 309 305 301 296 289 281
353 352 355 353 349 346 343 344 346 344 345 338 333 322 314 295 318 309 291 298 297 285 289 300 314 315 310 311 304 306 298 312 320 330 334 337 322 316 305 301 296 293 289
342 348 349 349 347 346 345 344 348 348 345 344 340 339 323 309 356 283 300 314 338 336 318 314 313 309 315 304 291 290 307 315 332 347 322 310 310 304 299 303 296 294 290
334 340 343 344 342 345 343 342 345 350 348 346 346 345 337 46 56 14 299 338 352 349 343 343 339 324 331 344 321 301 297 302 320 326 318 305 300 307 315 326 320 311 299
326 334 336 336 336 339 343 341 341 346 350 351 353 33 35 91 110 24 6 341 340 342 344 338 340 339 332 328 317 314 309 307 304 326 315 306 316 317 332 334 332 324 314
323 327 330 329 330 333 338 335 336 342 350 353 354 3 7 277 264 272 209 294 314 331 335 328 333 334 331 320 324 328 324 320 318 320 319 328 325 330 334 345 346 346 346
324 329 330 329 327 328 332 334 329 334 341 351 360 1 346 332 329 209 212 230 270 299 314 321 325 330 332 317 330 352 337 327 316 326 326 322 321 326 334 334 347 355 351
319 322 327 332 334 331 329 328 324 325 329 335 347 330 289 292 316 318 229 234 249 290 314 307 310 312 306 335 330 331 329 327 320 317 321 323 318 326 334 333 333 344 349
324 326 325 325 328 328 327 325 320 316 315 321 323 327 329 312 284 283 296 305 260 279 293 291 304 331 298 312 313 319 321 331 326 318 314 311 314 315 324 334 336 343 341
320 318 316 316 318 319 318 316 315 312 308 307 307 309 308 312 289 276 291 299 304 315 312 299 287 312 302 302 310 301 318 329 331 330 330 325 320 315 315 327 340 348 353
315 313 310 310 310 309 308 307 306 307 305 299 298 297 294 298 294 285 282 292 299 310 324 340 306 310 313 314 310 318 323 324 322 324 329 328 327 320 316 322 333 348 354
310 310 309 306 304 302 301 298 297 298 298 297 294 291 290 290 285 286 284 277 295 305 313 322 302 295 304 305 312 324 325 308 312 319 322 321 325 325 317 318 327 335 347
305 306 307 306 304 302 298 296 294 294 292 290 291 290 287 285 283 283 285 283 267 288 303 299 292 291 305 309 310 312 315 302 301 310 313 317 319 327 328 321 321 324 332
307 309 309 305 303 301 298 295 293 292 291 290 290 288 283 283 281 279 278 278 280 263 269 281 286 284 296 305 310 309 315 315 310 313 312 311 314 316 320 320 317 315 319
312 312 310 309 308 304 300 295 294 292 288 289 288 288 286 284 278 273 271 263 263 271 268 278 284 297 298 303 305 306 313 311 312 312 308 306 305 303 304 307 306 302 304
316 315 314 311 309 306 302 300 297 294 291 290 287 284 285 285 279 274 269 266 266 268 273 281 289 293 296 300 303 305 308 306 309 308 306 307 304 300 295 294 293 290 291
313 312 311 310 308 307 304 301 298 295 292 290 291 287 285 282 280 278 272 268 267 268 269 274 282 288 292 297 296 300 306 305 303 301 300 300 300 298 294 290 288 285 281
312 311 310 309 308 307 306 304 300 298 297 295 294 291 288 282 279 279 276 272 270 268 267 269 275 281 285 290 292 299 297 298 297 297 298 296 296 295 293 285 281 276 273
314 313 312 310 310 308 305 302 299 299 298 298 296 293 289 284 277 273 272 274 274 269 266 265 269 274 278 285 290 293 293 294 293 298 296 293 293 299 296 289 276 269 269
309 309 311 312 311 309 307 303 301 301 301 301 301 298 291 284 280 277 272 270 269 271 270 265 266 268 274 279 284 286 285 286 294 299 294 291 292 291 286 281 275 272 269
306 307 310 310 310 310 310 308 304 303 304 305 303 302 297 292 287 282 277 271 268 268 270 272 268 267 272 276 276 273 276 280 284 288 289 292 292 291 285 278 271 268 268
304 306 306 306 306 308 309 308 306 306 302 304 304 300 295 296 296 290 286 282 275 272 271 272 275 278 275 271 264 267 268 271 276 277 279 284 290 292 285 275 269 266 267
301 302 303 304 304 305 308 310 310 308 307 303 301 297 294 293 291 288 287 286 282 282 284 277 271 271 273 271 267 263 265 268 271 272 271 277 283 287 279 270 266 267 269
302 303 302 301 300 302 306 309 315 316 311 308 302 294 294 289 287 287 289 289 290 297 288 280 276 276 272 267 268 272 273 273 272 277 277 266 271 271 277 272 263 262 275
Wind_Speed_850mb
27 29 33 35 34 34 35 33 31 33 33 29 21 18 19 21 23 23 22 22 27 33 37 40 40 35 34 38 39 39 41 42 42 42 43 42 44 47 51 55 57 59 55
28 33 37 40 38 37 36 34 34 36 36 30 26 19 22 22 22 24 26 19 20 25 29 34 25 22 25 27 29 31 32 32 32 35 36 35 36 38 39 42 45 51 58
28 36 41 42 39 37 36 33 33 35 36 30 27 24 22 20 16 19 18 22 24 25 16 19 21 18 19 20 21 21 22 21 20 21 20 20 19 28 29 33 38 42 46
29 35 42 43 40 38 38 38 37 38 39 36 32 26 21 14 15 21 16 19 15 17 19 26 22 22 17 14 10 9 12 17 15 18 19 16 22 24 30 36 42 42 47
30 37 42 42 41 38 38 40 40 42 45 41 36 26 15 10 14 4 11 14 11 15 17 20 22 28 20 15 14 16 14 15 16 12 12 17 24 30 37 42 40 43 50
32 37 41 41 40 37 35 37 40 41 44 43 35 26 9 7 10 10 12 11 16 23 27 22 26 35 23 16 15 15 16 15 12 15 18 24 29 31 37 38 45 52 54
33 39 42 39 37 35 35 36 39 40 43 46 35 12 9 5 2 6 4 11 13 21 26 21 35 30 19 18 18 14 14 15 13 12 18 26 30 29 31 38 46 53 62
33 37 37 36 35 35 32 32 35 38 39 42 38 19 11 2 3 7 6 7 6 17 19 26 29 29 23 17 20 12 13 14 15 17 16 26 28 30 33 31 43 48 41
35 36 34 33 31 32 32 32 32 34 36 34 28 16 11 9 27 12 11 12 10 8 18 25 31 29 34 17 16 16 18 20 19 21 22 27 31 31 29 26 37 44 39
31 29 28 29 30 31 30 31 31 31 33 32 26 13 12 15 11 17 17 16 16 14 20 26 33 40 33 28 20 25 24 27 23 21 23 26 29 32 32 27 32 33 38
26 28 29 30 29 31 32 32 31 30 31 30 28 28 25 14 16 20 37 26 24 25 25 27 28 25 17 22 25 25 28 28 25 24 23 27 29 30 29 29 30 30 32
27 30 33 34 34 33 33 33 33 34 33 33 30 26 26 23 18 19 32 39 42 38 35 24 14 14 17 23 28 22 26 25 25 26 29 29 26 26 27 25 25 26 24
32 32 34 36 37 38 37 36 36 35 36 38 35 33 30 28 27 26 31 39 39 45 29 8 9 11 18 26 17 25 30 25 24 24 27 28 26 24 25 25 23 21 19
38 39 39 40 39 40 41 40 39 38 37 39 40 37 37 36 34 32 34 34 41 39 35 18 21 16 19 23 34 41 39 28 24 24 25 25 24 21 22 22 23 21 19
40 40 41 43 43 41 40 40 41 41 39 40 39 40 43 40 39 39 39 30 28 29 35 12 11 19 26 35 41 41 41 26 21 23 25 23 20 19 19 20 22 22 19
41 41 43 42 41 40 39 40 41 40 44 43 43 44 43 43 43 42 43 40 34 37 40 40 36 35 37 40 38 33 33 24 24 24 24 23 19 18 18 19 20 21 20
38 38 39 41 39 39 37 39 39 40 43 45 45 49 49 46 46 44 44 45 47 44 48 52 48 41 42 40 37 33 31 28 25 26 24 22 20 18 19 19 18 18 18
40 41 41 42 41 40 39 39 39 39 42 44 45 45 51 49 50 47 47 49 51 51 55 61 52 45 42 39 40 35 30 31 31 29 25 23 22 20 19 19 19 18 18
42 41 41 42 42 41 41 40 41 42 41 42 44 45 46 46 51 49 48 50 49 49 51 58 60 49 44 39 40 38 35 33 32 27 25 26 25 24 22 21 20 19 18
45 43 42 41 39 39 39 39 40 41 42 42 41 44 45 44 45 47 50 52 51 52 52 53 57 53 48 41 42 41 38 34 29 28 27 26 25 23 22 21 20 19 19
43 43 42 40 40 39 38 38 40 40 42 43 41 40 40 42 44 44 47 49 50 55 55 54 57 55 51 46 43 41 42 35 31 32 27 23 20 20 21 20 19 21 22
42 44 44 44 43 42 39 39 42 43 42 43 42 38 36 37 38 41 43 48 49 52 57 59 60 58 56 48 43 41 40 38 39 31 27 27 30 25 24 23 24 23 24
42 43 44 45 44 41 40 39 39 40 43 43 41 38 37 33 33 35 36 37 42 45 49 55 60 59 53 44 41 44 41 40 40 36 40 42 33 33 28 27 24 25 26
45 45 44 42 43 39 38 38 40 40 41 40 40 39 36 33 31 34 37 36 35 38 39 40 46 47 43 38 38 40 41 44 43 39 37 45 40 33 28 27 25 26 28
47 47 45 42 41 37 36 38 40 42 43 42 38 35 34 35 31 33 34 37 35 36 35 39 39 40 39 37 36 37 40 38 41 42 39 41 42 36 31 29 28 29 30
48 47 46 41 38 38 33 35 39 41 41 41 38 35 32 32 30 28 29 32 34 30 32 32 34 34 33 34 34 35 32 38 41 44 38 31 28 26 15 21 22 18 17
Wind_Direction_850mb
1 1 358 353 351 347 343 342 342 342 337 329 320 309 310 309 311 306 310 313 285 281 284 289 295 287 274 269 274 280 282 283 284 286 285 285 282 278 275 272 270 268 263
4 3 1 357 353 349 346 342 343 345 341 331 322 306 291 291 296 298 292 301 299 293 296 305 309 293 281 278 279 283 288 289 288 287 286 285 287 290 288 286 281 276 269
0 1 358 355 351 348 344 343 342 342 342 330 322 314 308 296 283 309 297 293 292 296 307 311 322 314 295 291 291 295 298 300 305 311 313 310 322 309 305 301 296 289 281
353 352 355 353 349 346 343 344 346 344 345 338 333 322 314 295 318 309 291 298 297 285 289 300 314 315 310 311 304 306 298 312 320 330 334 337 322 316 305 301 296 293 289
342 348 349 349 347 346 345 344 348 348 345 344 340 339 323 309 356 283 300 314 338 336 318 314 313 309 315 304 291 290 307 315 332 347 322 310 310 304 299 303 296 294 290
334 340 343 344 342 345 343 342 345 350 348 346 346 345 337 46 56 14 299 338 352 349 343 343 339 324 331 344 321 301 297 302 320 326 318 305 300 307 315 326 320 311 299
326 334 336 336 336 339 343 341 341 346 350 351 353 33 35 91 110 24 6 341 340 342 344 338 340 339 332 328 317 314 309 307 304 326 315 306 316 317 332 334 332 324 314
323 327 330 329 330 333 338 335 336 342 350 353 354 3 7 277 264 272 209 294 314 331 335 328 333 334 331 320 324 328 324 320 318 320 319 328 325 330 334 345 346 346 346
324 329 330 329 327 328 332 334 329 334 341 351 360 1 346 332 329 209 212 230 270 299 314 321 325 330 332 317 330 352 337 327 316 326 326 322 321 326 334 334 347 355 351
319 322 327 332 334 331 329 328 324 325 329 335 347 330 289 292 316 318 229 234 249 290 314 307 310 312 306 335 330 331 329 327 320 317 321 323 318 326 334 333 333 344 349
324 326 325 325 328 328 327 325 320 316 315 321 323 327 329 312 284 283 296 305 260 279 293 291 304 331 298 312 313 319 321 331 326 318 314 311 314 315 324 334 336 343 341
320 318 316 316 318 319 318 316 315 312 308 307 307 309 308 312 289 276 291 299 304 315 312 299 287 312 302 302 310 301 318 329 331 330 330 325 320 315 315 327 340 348 353
315 313 310 310 310 309 308 307 306 307 305 299 298 297 294 298 294 285 282 292 299 310 324 340 306 310 313 314 310 318 323 324 322 324 329 328 327 320 316 322 333 348 354
310 310 309 306 304 302 301 298 297 298 298 297 294 291 290 290 285 286 284 277 295 305 313 322 302 295 304 305 312 324 325 308 312 319 322 321 325 325 317 318 327 335 347
305 306 307 306 304 302 298 296 294 294 292 290 291 290 287 285 283 283 285 283 267 288 303 299 292 291 305 309 310 312 315 302 301 310 313 317 319 327 328 321 321 324 332
307 309 309 305 303 301 298 295 293 292 291 290 290 288 283 283 281 279 278 278 280 263 269 281 286 284 296 305 310 309 315 315 310 313 312 311 314 316 320 320 317 315 319
312 312 310 309 308 304 300 295 294 292 288 289 288 288 286 284 278 273 271 263 263 271 268 278 284 297 298 303 305 306 313 311 312 312 308 306 305 303 304 307 306 302 304
316 315 314 311 309 306 302 300 297 294 291 290 287 284 285 285 279 274 269 266 266 268 273 281 289 293 296 300 303 305 308 306 309 308 306 307 304 300 295 294 293 290 291
313 312 311 310 308 307 304 301 298 295 292 290 291 287 285 282 280 278 272 268 267 268 269 274 282 288 292 297 296 300 306 305 303 301 300 300 300 298 294 290 288 285 281
312 311 310 309 308 307 306 304 300 298 297 295 294 291 288 282 279 279 276 272 270 268 267 269 275 281 285 290 292 299 297 298 297 297 298 296 296 295 293 285 281 276 273
314 313 312 310 310 308 305 302 299 299 298 298 296 293 289 284 277 273 272 274 274 269 266 265 269 274 278 285 290 293 293 294 293 298 296 293 293 299 296 289 276 269 269
309 309 311 312 311 309 307 303 301 301 301 301 301 298 291 284 280 277 272 270 269 271 270 265 266 268 274 279 284 286 285 286 294 299 294 291 292 291 286 281 275 272 269
306 307 310 310 310 310 310 308 304 303 304 305 303 302 297 292 287 282 277 271 268 268 270 272 268 267 272 276 276 273 276 280 284 288 289 292 292 291 285 278 271 268 268
304 306 306 306 306 308 309 308 306 306 302 304 304 300 295 296 296 290 286 282 275 272 271 272 275 278 275 271 264 267 268 271 276 277 279 284 290 292 285 275 269 266 267
301 302 303 304 304 305 308 310 310 308 307 303 301 297 294 293 291 288 287 286 282 282 284 277 271 271 273 271 267 263 265 268 271 272 271 277 283 287 279 270 266 267 269
302 303 302 301 300 302 306 309 315 316 311 308 302 294 294 289 287 287 289 289 290 297 288 280 276 276 272 267 268 272 273 273 272 277 277 266 271 271 277 272 263 262 275